Ephrata, WA
on Monday, November 12, 2012

Monday
Previous Day Next Day
Daily Summary
 ActualAverageRecord
Temperature
Mean Temperature °F / °C 38°F / 3°C  
Max Temperature 36°F / 2°C 47°F / 8°C 66°F / 18°C (1999)
Min Temperature 31°F / -1°C 30°F / -1°C 5°F / -15°C (1955)
Degree Days
Heating Degree Days 31 27  
Month to date heating degree days 267 291  
Since 1 July heating degree days 762 872  
Cooling Degree Days 0 0  
Month to date cooling degree days 0 0  
Year to date cooling degree days 837 772  
Moisture
Dew Point 30°F / -1°C   
Average Humidity 87    
Maximum Humidity 92    
Minimum Humidity 82    
Precipitation
Precipitation 0.25 in / 6.35 cm 0.03 in / 0.76 cm 0.54 in / 1.37 cm (1973)
Month to date precipitation 0.55 0.38  
Year to date precipitation 6.41 5.93  
Wind
Wind Speed 4 mph / 7 km/h   
Max Wind Speed 9 mph / 14 km/h   
Max Gust Speed 10 mph / 16 km/h   
Visibility 7 miles / 11 kilometers   
Events Snow   

Key: T is trace of precipitation, MM is missing value
Source: NWS Daily Summary
Time(PST)TemperatureDew PointHumidity Pressure Visibility Wind DirectionWind SpeedGust SpeedPrecipitationEvents Conditions
12:53 AM 32.0°F / 0.0°C 30.9°F / -0.6°C 96% 30.28 in / 1025.2 hPa 1.0 miles / 1.6 kilometers North 3.5 mph / 5.6 km/h - 0.06 in / 1.5 cm Snow Light Snow
1:02 AM 32.0°F / 0.0°C 30.2°F / -1.0°C 93% 30.23 in / 1023.6 hPa 0.8 miles / 1.2 kilometers North 3.5 mph / 5.6 km/h - 0.01 in / 0.3 cm Snow Light Snow
1:32 AM 32.0°F / 0.0°C 30.2°F / -1.0°C 93% 30.22 in / 1023.2 hPa 1.0 miles / 1.6 kilometers North 4.6 mph / 7.4 km/h - 0.06 in / 1.5 cm Snow Light Snow
1:53 AM 32.0°F / 0.0°C 30.9°F / -0.6°C 96% 30.27 in / 1025.0 hPa 1.5 miles / 2.4 kilometers North 3.5 mph / 5.6 km/h - 0.08 in / 2.0 cm Snow Light Snow
2:53 AM 32.0°F / 0.0°C 30.9°F / -0.6°C 96% 30.25 in / 1024.4 hPa 1.8 miles / 2.8 kilometers North 4.6 mph / 7.4 km/h - 0.04 in / 1.0 cm Snow Light Snow
3:28 AM 32.0°F / 0.0°C 30.2°F / -1.0°C 93% 30.21 in / 1022.9 hPa 2.5 miles / 4.0 kilometers North 4.6 mph / 7.4 km/h - 0.02 in / 0.5 cm Snow Light Snow
3:53 AM 32.0°F / 0.0°C 30.9°F / -0.6°C 96% 30.25 in / 1024.1 hPa 1.2 miles / 2.0 kilometers North 3.5 mph / 5.6 km/h - 0.03 in / 0.8 cm Snow Light Snow
4:37 AM 32.0°F / 0.0°C 30.2°F / -1.0°C 93% 30.20 in / 1022.6 hPa 2.5 miles / 4.0 kilometers North 5.8 mph / 9.3 km/h - 0.03 in / 0.8 cm Snow Light Snow
4:44 AM 32.0°F / 0.0°C 30.2°F / -1.0°C 93% 30.20 in / 1022.6 hPa 4.0 miles / 6.4 kilometers North 4.6 mph / 7.4 km/h - 0.03 in / 0.8 cm Snow Light Snow
4:51 AM 32.0°F / 0.0°C 30.2°F / -1.0°C 93% 30.20 in / 1022.6 hPa 4.0 miles / 6.4 kilometers North 5.8 mph / 9.3 km/h - 0.03 in / 0.8 cm   Overcast
4:53 AM 32.0°F / 0.0°C 30.9°F / -0.6°C 96% 30.25 in / 1024.1 hPa 5.0 miles / 8.0 kilometers North 5.8 mph / 9.3 km/h - 0.03 in / 0.8 cm   Overcast
5:00 AM 32.0°F / 0.0°C 30.2°F / -1.0°C 93% 30.20 in / 1022.6 hPa 5.0 miles / 8.0 kilometers North 5.8 mph / 9.3 km/h - N/A   Overcast
5:33 AM 32.0°F / 0.0°C 32.0°F / 0.0°C 100% 30.19 in / 1022.2 hPa 1.8 miles / 2.8 kilometers North 4.6 mph / 7.4 km/h - N/A   Overcast
5:49 AM 32.0°F / 0.0°C 30.2°F / -1.0°C 93% 30.20 in / 1022.6 hPa 3.0 miles / 4.8 kilometers NNW 5.8 mph / 9.3 km/h - N/A   Overcast
5:50 AM 32.0°F / 0.0°C 30.9°F / -0.6°C 96% 30.24 in / 1023.9 hPa 3.0 miles / 4.8 kilometers NNW 4.6 mph / 7.4 km/h - N/A   Overcast
6:10 AM 32.0°F / 0.0°C 30.2°F / -1.0°C 93% 30.19 in / 1022.2 hPa 8.0 miles / 12.9 kilometers NNW 5.8 mph / 9.3 km/h - 0.00 in / 0.0 cm   Overcast
6:53 AM 33.1°F / 0.6°C 30.9°F / -0.6°C 92% 30.24 in / 1023.8 hPa 8.0 miles / 12.9 kilometers North 5.8 mph / 9.3 km/h - 0.00 in / 0.0 cm   Overcast
7:53 AM 33.1°F / 0.6°C 30.9°F / -0.6°C 92% 30.24 in / 1023.9 hPa 7.0 miles / 11.3 kilometers NW 6.9 mph / 11.1 km/h - N/A   Overcast
8:19 AM 32.0°F / 0.0°C 30.2°F / -1.0°C 93% 30.20 in / 1022.6 hPa 2.0 miles / 3.2 kilometers WNW 6.9 mph / 11.1 km/h - 0.00 in / 0.0 cm Snow Light Snow
8:31 AM 32.0°F / 0.0°C 30.2°F / -1.0°C 93% 30.20 in / 1022.6 hPa 1.5 miles / 2.4 kilometers NW 8.1 mph / 13.0 km/h - 0.01 in / 0.3 cm Snow Light Snow
8:53 AM 33.1°F / 0.6°C 30.0°F / -1.1°C 89% 30.24 in / 1023.8 hPa 2.0 miles / 3.2 kilometers NW 8.1 mph / 13.0 km/h - 0.02 in / 0.5 cm Snow Light Snow
8:58 AM 33.8°F / 1.0°C 30.2°F / -1.0°C 87% 30.20 in / 1022.6 hPa 4.0 miles / 6.4 kilometers NW 6.9 mph / 11.1 km/h - 0.00 in / 0.0 cm Snow Light Snow
9:05 AM 33.8°F / 1.0°C 30.2°F / -1.0°C 87% 30.20 in / 1022.6 hPa 6.0 miles / 9.7 kilometers NW 6.9 mph / 11.1 km/h - 0.00 in / 0.0 cm Snow Light Snow
9:53 AM 33.1°F / 0.6°C 30.9°F / -0.6°C 92% 30.23 in / 1023.7 hPa 8.0 miles / 12.9 kilometers NW 4.6 mph / 7.4 km/h - 0.00 in / 0.0 cm Snow Light Snow
10:21 AM 33.8°F / 1.0°C 30.2°F / -1.0°C 87% 30.20 in / 1022.6 hPa 10.0 miles / 16.1 kilometers Calm Calm - 0.00 in / 0.0 cm   Overcast
10:53 AM 35.1°F / 1.7°C 30.9°F / -0.6°C 85% 30.24 in / 1024.0 hPa 10.0 miles / 16.1 kilometers NW 8.1 mph / 13.0 km/h - 0.00 in / 0.0 cm   Overcast
11:18 AM 35.6°F / 2.0°C 30.2°F / -1.0°C 81% 30.20 in / 1022.6 hPa 10.0 miles / 16.1 kilometers NW 6.9 mph / 11.1 km/h - N/A   Overcast
11:53 AM 35.1°F / 1.7°C 30.9°F / -0.6°C 85% 30.24 in / 1023.8 hPa 10.0 miles / 16.1 kilometers NNW 5.8 mph / 9.3 km/h - N/A   Overcast
12:20 PM 35.6°F / 2.0°C 30.2°F / -1.0°C 81% 30.19 in / 1022.2 hPa 10.0 miles / 16.1 kilometers NNW 8.1 mph / 13.0 km/h - N/A   Overcast
12:53 PM 35.1°F / 1.7°C 32.0°F / 0.0°C 89% 30.23 in / 1023.5 hPa - NNW 3.5 mph / 5.6 km/h - N/A   Overcast
1:25 PM 35.6°F / 2.0°C 32.0°F / 0.0°C 87% 30.19 in / 1022.2 hPa - NNW 4.6 mph / 7.4 km/h - N/A   Overcast
1:53 PM 35.1°F / 1.7°C 32.0°F / 0.0°C 89% 30.23 in / 1023.5 hPa 10.0 miles / 16.1 kilometers NNW 3.5 mph / 5.6 km/h - N/A   Overcast
2:53 PM 35.1°F / 1.7°C 32.0°F / 0.0°C 89% 30.22 in / 1023.3 hPa 10.0 miles / 16.1 kilometers NNW 3.5 mph / 5.6 km/h - N/A   Overcast
3:20 PM 35.6°F / 2.0°C 30.2°F / -1.0°C 81% 30.19 in / 1022.2 hPa 10.0 miles / 16.1 kilometers NNW 3.5 mph / 5.6 km/h - N/A   Scattered Clouds
3:37 PM 35.6°F / 2.0°C 30.2°F / -1.0°C 81% 30.19 in / 1022.2 hPa 10.0 miles / 16.1 kilometers NW 4.6 mph / 7.4 km/h - N/A   Mostly Cloudy
3:53 PM 35.1°F / 1.7°C 30.9°F / -0.6°C 85% 30.23 in / 1023.7 hPa 10.0 miles / 16.1 kilometers NW 3.5 mph / 5.6 km/h - N/A   Mostly Cloudy
4:07 PM 33.8°F / 1.0°C 30.2°F / -1.0°C 87% 30.19 in / 1022.2 hPa 10.0 miles / 16.1 kilometers NW 5.8 mph / 9.3 km/h - N/A   Scattered Clouds
4:51 PM 33.8°F / 1.0°C 28.4°F / -2.0°C 81% 30.20 in / 1022.6 hPa 10.0 miles / 16.1 kilometers NNW 3.5 mph / 5.6 km/h - N/A   Mostly Cloudy
4:53 PM 33.1°F / 0.6°C 30.0°F / -1.1°C 89% 30.24 in / 1024.0 hPa 10.0 miles / 16.1 kilometers NNW 3.5 mph / 5.6 km/h - N/A   Mostly Cloudy
5:38 PM 33.8°F / 1.0°C 30.2°F / -1.0°C 87% 30.21 in / 1022.9 hPa 10.0 miles / 16.1 kilometers Calm Calm - N/A   Overcast
5:53 PM 32.0°F / 0.0°C 28.9°F / -1.7°C 88% 30.25 in / 1024.1 hPa 10.0 miles / 16.1 kilometers NNW 4.6 mph / 7.4 km/h - N/A   Overcast
6:20 PM 33.8°F / 1.0°C 30.2°F / -1.0°C 87% 30.21 in / 1022.9 hPa 10.0 miles / 16.1 kilometers Calm Calm - N/A   Overcast
6:53 PM 33.1°F / 0.6°C 30.0°F / -1.1°C 89% 30.27 in / 1024.8 hPa 10.0 miles / 16.1 kilometers Calm Calm - N/A   Overcast
7:38 PM 33.8°F / 1.0°C 28.4°F / -2.0°C 81% 30.22 in / 1023.2 hPa 10.0 miles / 16.1 kilometers NNW 3.5 mph / 5.6 km/h - N/A   Overcast
7:53 PM 33.1°F / 0.6°C 30.0°F / -1.1°C 89% 30.27 in / 1024.8 hPa 10.0 miles / 16.1 kilometers Calm Calm - N/A   Overcast
8:53 PM 33.1°F / 0.6°C 28.9°F / -1.7°C 85% 30.29 in / 1025.5 hPa 10.0 miles / 16.1 kilometers WNW 3.5 mph / 5.6 km/h - N/A   Overcast
9:18 PM 32.0°F / 0.0°C 28.4°F / -2.0°C 87% 30.24 in / 1023.9 hPa 10.0 miles / 16.1 kilometers NW 3.5 mph / 5.6 km/h - N/A   Scattered Clouds
9:43 PM 32.0°F / 0.0°C 28.4°F / -2.0°C 87% 30.25 in / 1024.3 hPa 10.0 miles / 16.1 kilometers WNW 5.8 mph / 9.3 km/h - N/A   Mostly Cloudy
9:51 PM 32.0°F / 0.0°C 28.4°F / -2.0°C 87% 30.24 in / 1023.9 hPa 10.0 miles / 16.1 kilometers NW 5.8 mph / 9.3 km/h - N/A   Scattered Clouds
9:53 PM 32.0°F / 0.0°C 28.0°F / -2.2°C 85% 30.29 in / 1025.6 hPa 10.0 miles / 16.1 kilometers WNW 6.9 mph / 11.1 km/h - N/A   Scattered Clouds
10:31 PM 32.0°F / 0.0°C 28.4°F / -2.0°C 87% 30.25 in / 1024.3 hPa 10.0 miles / 16.1 kilometers WNW 6.9 mph / 11.1 km/h - N/A   Mostly Cloudy
10:53 PM 32.0°F / 0.0°C 28.0°F / -2.2°C 85% 30.30 in / 1025.9 hPa 10.0 miles / 16.1 kilometers WNW 5.8 mph / 9.3 km/h - N/A   Overcast
11:53 PM 34.0°F / 1.1°C 30.0°F / -1.1°C 85% 30.30 in / 1026.1 hPa 10.0 miles / 16.1 kilometers Calm Calm - N/A   Overcast
Moon Phase
Nov. 12 Nov. 13 Nov. 20 Nov. 28 Dec. 06
Sunrise:06:58 AM (PST) Moon Rise:05:27 AM (PST)11/12
Sunset:04:25 PM (PST) Moon Set:03:35 PM (PST)11/12

Copyright © 2014 The Weather Underground, Inc.